EW6866 Weather Reports


time (UTC)temp
C
wind
direction
speed
KPH
gust
KPH
rain 1hr
cm
rain 24hr
cm
rain mn
cm
humidity
%
barometer
mb
20260509124524 17 0 0.0 0.0 0.00 0.00 0.00 95 1013.0
20260509123005 16 0 0.0 0.0 0.00 0.00 0.00 96 1012.9
20260509121504 15 0 0.0 0.0 0.00 0.00 0.00 96 1013.0
20260509120004 15 0 0.0 0.0 0.00 0.00 0.00 96 1013.1
20260509114504 14 0 0.0 0.0 0.00 0.00 0.00 96 1013.0
20260509113004 13 0 0.0 0.0 0.00 0.00 0.00 96 1013.0
20260509111525 13 0 0.0 0.0 0.00 0.00 0.00 96 1013.0
20260509110004 13 0 0.0 0.0 0.00 0.00 0.00 96 1013.0
20260509104503 13 0 0.0 0.0 0.00 0.00 0.00 95 1013.3
20260509103025 13 0 0.0 0.0 0.00 0.00 0.00 95 1013.4
20260509101504 12 226 0.0 1.6 0.00 0.00 0.00 96 1013.1
20260509100005 12 0 0.0 0.0 0.00 0.00 0.00 95 1012.9
20260509094524 12 0 0.0 0.0 0.00 0.00 0.00 95 1012.9
20260509093003 13 0 0.0 0.0 0.00 0.00 0.00 95 1013.0
20260509091504 13 0 0.0 0.0 0.00 0.00 0.00 95 1013.5
20260509090004 12 0 0.0 0.0 0.00 0.00 0.00 95 1013.5
20260509084503 13 0 0.0 0.0 0.00 0.00 0.00 94 1013.5
20260509083003 13 0 0.0 0.0 0.00 0.00 0.00 94 1013.6
20260509081504 13 0 0.0 0.0 0.00 0.00 0.00 94 1013.6
20260509080004 13 0 0.0 0.0 0.00 0.00 0.00 93 1013.7
20260509074505 13 0 0.0 0.0 0.00 0.00 0.00 93 1013.7
20260509073005 13 0 0.0 0.0 0.00 0.00 0.00 92 1013.5
20260509071505 13 0 0.0 0.0 0.00 0.00 0.00 92 1013.6
20260509070006 13 0 0.0 0.0 0.00 0.00 0.00 91 1014.0
20260509064506 14 226 0.0 1.6 0.00 0.00 0.00 90 1014.1
20260509063005 15 0 0.0 0.0 0.00 0.00 0.00 89 1014.2
20260509061505 15 0 0.0 0.0 0.00 0.00 0.00 88 1014.4
20260509060006 15 0 0.0 0.0 0.00 0.00 0.00 88 1014.5
20260509054505 15 258 0.0 1.6 0.00 0.00 0.00 88 1014.7
20260509053006 15 0 0.0 0.0 0.00 0.00 0.00 87 1014.8
20260509051505 15 263 0.0 1.6 0.00 0.00 0.00 86 1014.9
20260509050005 15 268 0.0 1.6 0.00 0.00 0.00 85 1014.9
20260509044505 15 280 0.0 1.6 0.00 0.00 0.00 84 1014.9
20260509043005 15 279 0.0 3.2 0.00 0.00 0.00 83 1014.9
20260509041506 15 272 0.0 3.2 0.00 0.00 0.00 82 1015.1
20260509040006 15 278 0.0 1.6 0.00 0.00 0.00 82 1014.9
20260509034504 15 259 0.0 1.6 0.00 0.00 0.00 81 1015.1
20260509033005 16 273 0.0 3.2 0.00 0.00 0.00 80 1015.2
20260509031505 16 287 0.0 1.6 0.00 0.00 0.00 79 1015.3
20260509030006 16 263 0.0 4.8 0.00 0.00 0.00 78 1015.3
20260509024505 16 244 0.0 4.8 0.00 0.00 0.00 77 1015.3
20260509023005 16 291 0.0 3.2 0.00 0.00 0.00 76 1015.6
20260509021526 16 297 0.0 4.8 0.00 0.00 0.00 77 1015.6
20260509020005 16 283 0.0 1.6 0.00 0.00 0.00 76 1015.4
20260509014505 16 290 1.6 8.0 0.00 0.00 0.00 75 1015.3
20260509013005 16 302 1.6 9.7 0.00 0.00 0.00 75 1015.1
20260509011526 16 283 0.0 4.8 0.00 0.00 0.00 77 1014.8
20260509010005 16 276 0.0 6.4 0.00 0.00 0.00 77 1014.7
20260509004505 16 269 0.0 1.6 0.00 0.00 0.00 77 1014.5
20260509003004 16 277 0.0 1.6 0.00 0.00 0.00 76 1014.4
20260509001525 17 243 0.0 6.4 0.00 0.00 0.00 75 1014.3
20260509000026 16 112 0.0 1.6 0.00 0.00 0.00 77 1014.3
20260508234505 16 288 0.0 1.6 0.00 0.00 0.00 75 1014.0
20260508233005 17 54 0.0 1.6 0.00 0.00 0.00 73 1014.1
20260508231505 17 57 0.0 1.6 0.00 0.00 0.00 72 1013.9
20260508230005 17 0 0.0 0.0 0.00 0.00 0.00 67 1013.7
20260508224505 18 63 0.0 1.6 0.00 0.00 0.00 66 1013.7
20260508223004 18 69 0.0 3.2 0.00 0.00 0.00 67 1013.5
20260508221525 18 65 0.0 4.8 0.00 0.00 0.00 63 1013.6
20260508220006 18 54 0.0 1.6 0.00 0.00 0.00 62 1013.9
20260508214505 18 51 0.0 3.2 0.00 0.00 0.00 60 1014.2
20260508213026 18 46 0.0 1.6 0.00 0.00 0.00 61 1014.1
20260508211504 20 270 1.6 4.8 0.00 0.00 0.00 59 1013.9
20260508210025 20 280 0.0 4.8 0.00 0.03 0.00 53 1013.9
20260508204505 20 276 0.0 3.2 0.00 0.03 0.00 55 1013.9
20260508203004 20 293 0.0 4.8 0.00 0.05 0.00 53 1014.1
20260508201504 21 265 0.0 6.4 0.00 0.08 0.00 52 1014.2
20260508200004 20 335 0.0 1.6 0.00 0.10 0.00 58 1014.4
20260508194526 20 282 0.0 8.0 0.00 0.10 0.00 59 1014.7
20260508193005 20 272 0.0 14.5 0.00 0.10 0.00 62 1014.9
20260508191504 20 286 1.6 4.8 0.00 0.10 0.00 59 1015.2
20260508190004 20 311 1.6 6.4 0.00 0.13 0.00 58 1015.3
20260508184504 20 30 0.0 4.8 0.00 0.15 0.00 61 1015.5
20260508183005 20 279 1.6 8.0 0.00 0.15 0.00 64 1015.5
20260508181505 19 268 1.6 9.7 0.00 0.15 0.00 60 1015.4
20260508180004 19 277 1.6 9.7 0.00 0.15 0.00 58 1015.6
20260508174505 20 273 1.6 4.8 0.00 0.15 0.00 63 1015.6
20260508173004 19 272 3.2 11.3 0.00 0.18 0.00 61 1015.8
20260508171505 20 272 1.6 9.7 0.00 0.23 0.00 63 1015.8
20260508170004 19 303 0.0 11.3 0.00 0.30 0.00 66 1016.0
20260508164504 19 51 0.0 1.6 0.00 0.43 0.00 62 1016.1
20260508163004 19 96 0.0 3.2 0.00 0.66 0.00 62 1016.3
20260508161504 20 102 0.0 1.6 0.00 1.07 0.00 62 1016.4
20260508160025 19 70 1.6 4.8 0.00 1.17 0.00 62 1016.5
20260508154525 18 108 0.0 3.2 0.00 1.24 0.00 65 1016.5
20260508153004 18 75 0.0 3.2 0.00 1.35 0.00 69 1016.5
20260508151504 17 65 1.6 8.0 0.00 1.35 0.00 69 1016.5
20260508150004 17 74 1.6 6.4 0.00 1.35 0.00 70 1016.3
20260508144504 17 70 1.6 3.2 0.00 1.35 0.00 71 1016.3
20260508143004 16 67 1.6 9.7 0.00 1.35 0.00 71 1016.4
20260508141504 16 64 1.6 6.4 0.00 1.35 0.00 73 1016.3
20260508140024 16 74 1.6 4.8 0.00 1.35 0.00 75 1016.1
20260508134504 15 84 1.6 4.8 0.00 1.35 0.00 79 1016.0
20260508133004 15 69 0.0 9.7 0.00 1.35 0.00 80 1015.9
20260508131504 14 90 0.0 3.2 0.00 1.35 0.00 84 1015.8
20260508130003 13 81 0.0 3.2 0.00 1.35 0.00 90 1015.7